Thor Agena Rocket - Orbit

View from above orbital plane
View from above orbital plane
View from above satellite
View from above satellite

Ground track
Ground track

The orbit data is extracted from the following two-line orbital elements,

1 00733U 64002A   13140.16306297  .00000212  00000-0  96606-4 0  9488
2 00733 098.9804 240.7465 0034389 187.2926 232.8164 14.31635593569201
Epoch (UTC): 20 May 2013 03:54:48
Eccentricity: 0.0034389
inclination: 98.9804°
perigee height: 761 km
apogee height: 811 km
right ascension of ascending node: 240.7465°
argument of perigee: 187.2926°
revolutions per day: 14.31635593
mean anomaly at epoch: 232.8164°
orbit number at epoch: 56920

The dashed part of the orbit path shows where the satellite is in the earth's shadow,  

Developed and maintained by Chris Peat, Heavens-Above GmbH. Please read the updated FAQ before sending e-mail. Imprint. DLR